Regional Weather Roundup
Issued by NWS

Home | Current Version | Previous Version | Graphics & Text | Print | Product List | Glossary On
Versions: 1 2 3 4 5 6 7 8 9 10 11 12 13 14 15 16 17 18 19 20 21 22 23 24 25 26 27 28 29 30 31 32 33 34 35 36 37 38 39 40 41 42 43 44 45 46 47 48 49
000
ASUS43 KDMX 271107
RWRIA

WEATHER ROUNDUP FOR IOWA
NATIONAL WEATHER SERVICE DES MOINES IA
600 AM CDT THU AUG 27 2015

NOTE: "FAIR" INDICATES FEW OR NO CLOUDS BELOW 12,000 FEET WITH NO
SIGNIFICANT WEATHER AND/OR OBSTRUCTIONS TO VISIBILITY.

* - THESE STATIONS ARE NOT NWS STATIONS...THUS NOT UNDER NWS
QUALITY CONTROL.  THEY ALSO DO NOT REPORT WEATHER SUCH
AS PRECIPITATION OR FOG.

IAZ001>003-012>014-020>022-031>034-043>046-271200-
   NORTHWEST IOWA

CITY           SKY/WX    TMP DP  RH WIND       PRES   REMARKS
CARROLL *      CLOUDY    54  54 100 SE3       30.08F
CHEROKEE *     CLOUDY    61  55  82 CALM      30.05S
DENISON *      CLOUDY    61  55  82 SE6       30.05S
LE MARS *      CLEAR     63  59  88 CALM      30.03F
ORANGE CITY *  CLEAR     61  57  88 SE5       30.03F
SHELDON *      CLOUDY    61  57  88 SE6       30.03F
SIOUX CITY     CLOUDY    62  58  86 SE8       30.01F
SPENCER        CLOUDY    58  53  84 SE6       30.07F
STORM LAKE *   CLEAR     57  54  88 SE7       30.07F
$$

IAZ055>058-069>071-079>083-090>094-271200-
   SOUTHWEST IOWA

CITY           SKY/WX    TMP DP  RH WIND       PRES   REMARKS
ATLANTIC *     CLOUDY    61  54  77 S6        30.08S
AUDUBON *      CLEAR     55  54  94 CALM      30.09F
CLARINDA *     CLOUDY    63  55  77 VRB5      30.10S
COUNCIL BLFS *   N/A     63  57  82 SE12G17   30.05F
CRESTON *      CLEAR     55  54  94 SE8       30.12S
HARLAN  *      PTCLDY    61  61 100 SE3       30.10S
LAMONI         PTCLDY    58  54  86 S7        30.13R
RED OAK *      MOCLDY    61  55  82 SE5       30.07S
SHENANDOAH *   CLOUDY    64  57  77 SE7       30.06F
$$

IAZ047>049-059>061-072>074-084-271200-
   CENTRAL IOWA

CITY           SKY/WX    TMP DP  RH WIND       PRES   REMARKS
AMES           PTCLDY    52  51  97 CALM      30.11R
ANKENY *       CLEAR     55  55 100 CALM      30.11S
CHARITON *     CLOUDY    55  54  94 SE6       30.12R
DES MOINES     MOCLDY    60  53  77 S5        30.12R
GRINNELL*      CLEAR     54  50  87 SE6       30.14R
KNOXVILLE *    CLEAR     57  52  82 SE6       30.11R
MARSHALLTOWN   CLEAR     52  50  93 E6        30.12S
PELLA *        CLEAR     55  55 100 SE3       30.14R
PERRY *          N/A     54  54 100 SE3       30.10S
$$

IAZ004>006-015-016-023>025-035-036-271200-
   NORTH CENTRAL IOWA

CITY           SKY/WX    TMP DP  RH WIND       PRES   REMARKS
ALGONA *       CLEAR     57  54  88 SE7       30.10S
CLARION *      CLEAR     55  54  94 SE7       30.12R
ESTHERVILLE    CLOUDY    54  53  97 S3        30.09R
FORT DODGE *   MOCLDY    57  52  82 SE5       30.10F
MASON CITY     PTCLDY    50  49  96 S3        30.14R
FOREST CITY *  CLEAR     52  52 100 CALM      30.13R
IOWA FALLS *     N/A     54  52  94 SE5       30.13R
$$

IAZ007>011-017>019-026>030-037>042-050>054-066-271200-
   NORTHEAST IOWA

CITY           SKY/WX    TMP DP  RH WIND       PRES   REMARKS
CEDAR RAPIDS   PTCLDY    50  50 100 SE6       30.14F
CHARLES CITY * CLEAR     52  52 100 SE6       30.13R
CLINTON *      CLEAR     52  48  87 CALM      30.22R
DECORAH *      CLOUDY    52  50  93 SE5       30.13F
DUBUQUE        PTCLDY    54  53  97 S6        30.18R
MONTICELLO *   CLEAR     52  52 100 E5        30.15F
OELWEIN *      CLEAR     52  52 100 SE6       30.13F
WATERLOO       PTCLDY    52  50  93 SE3       30.12F
$$

IAZ064-065-067-068-078-271200-
   EAST CENTRAL IOWA

CITY           SKY/WX    TMP DP  RH WIND       PRES   REMARKS
DAVENPORT      CLEAR     55  53  93 S6        30.19R
IOWA CITY      CLEAR     53  50  89 CALM      30.18R
MT. PLEASANT * CLEAR     55  52  88 CALM      30.16F
MUSCATINE *    CLEAR     52  50  93 E6        30.16F FOG
QUAD CITIES    CLEAR     55  52  89 CALM      30.19R
$$

IAZ062-063-075>077-085>089-095>099-271200-
   SOUTHEAST IOWA

CITY           SKY/WX    TMP DP  RH WIND       PRES   REMARKS
BURLINGTON     CLEAR     56  55  97 SE3       30.17R
FAIRFIELD *    CLEAR     57  54  88 S6        30.15S
FORT MADISON * CLEAR     57  55  94 SE7       30.16F
KEOKUK *       CLEAR     55  54  94 SE9       30.14F
OSKALOOSA *      N/A     54  52  94 SE6       30.14R
CENTERVILLE *  CLEAR     52  52 100 SE3       30.14S
OTTUMWA        CLEAR     57  54  89 SE8       30.12S
WASHINGTON *     N/A    N/A N/A N/A MISG        N/A
$$

ABBREVIATIONS USED IN REMARKS
   TC - TEMPERATURES IN CELSIUS
  WCI - WIND CHILL INDEX
   HX - HEAT INDEX
  VSB - VISIBILITY
$$



USA.gov is the U.S. government's official web portal to all federal, state and local government web resources and services.